Regional Weather Roundup
Issued by NWS

Home | Current Version | Previous Version | Text Only | Print | Product List | Glossary Off
Versions: 1 2 3 4 5 6 7 8 9 10 11 12 13 14 15 16 17 18 19 20 21 22 23 24 25 26 27 28 29 30 31 32 33 34 35 36 37 38 39 40 41 42 43 44 45 46 47 48 49 50

000
ASUS45 KSLC 010210
RWRUT

UTAH REGIONAL WEATHER ROUNDUP
NATIONAL WEATHER SERVICE SALT LAKE CITY UT
800 PM MDT SAT APR 30 2016

UTZ001>011-023>025-010300-

NORTHERN UTAH

CITY           SKY/WX    TMP DP  RH WIND       PRES   REMARKS
BRIGHAM CITY   CLOUDY    55  29  37 E14G21    30.03R
HILL AFB       CLOUDY    50  30  46 NE26G37   29.98F
LOGAN          CLOUDY    51  34  52 E24G39    30.02R
OGDEN          CLOUDY    52  31  44 E9G18     29.99R
PROVO AIRPORT  NOT AVBL
SALT LAKE CITY CLOUDY    57  27  31 VRB3      29.95R
VERNAL         CLOUDY    45  28  51 NE17      30.04R
WENDOVER       PTCLDY    52  36  54 N26       30.00R
HEBER CITY     CLOUDY    45  34  65 CALM      29.96S

$$

UTZ012>022-026-027-010300-

SOUTHERN/CENTRAL UTAH

CITY           SKY/WX    TMP DP  RH WIND       PRES   REMARKS
BLANDING       CLOUDY    50  37  61 S5        29.94S
BRYCE CANYON   CLOUDY    40  34  79 NE10      29.94R WCI  33
CEDAR CITY     CLOUDY    44  40  85 CALM      29.89R
DELTA          PTCLDY    54  32  43 NE16      29.89R
HANKSVILLE     PTCLDY    55  30  38 NE17G24   29.91R
MILFORD        CLOUDY    48  40  73 NE7       29.90R
MOAB/CYNLANDS  PTCLDY    52  30  43 NE21      29.89R
PRICE          MOCLDY    45  26  47 NE18G29   29.97R
ST GEORGE      CLOUDY    57  43  58 NE20G25   29.85R
KANAB          MOCLDY    52  43  71 NE7       29.91R

$$

REGIONAL REPORTS     COLORADO/ARIZONA

CITY           SKY/WX    TMP DP  RH WIND       PRES   REMARKS
CRAIG, CO      CLOUDY    41  23  48 E13       30.04R
GRAND JUNCTION CLOUDY    50  33  52 N13       29.90R
RIFLE          CLOUDY    47  35  63 E8        29.95R
MONTROSE       CLOUDY    49  28  44 NW9       29.92R
CORTEZ         CLOUDY    46  37  71 W6        29.88R
PAGE, AZ       CLOUDY    54  39  57 NE5       29.85R
GRAND CANYON   CLOUDY    38  34  85 NE13      29.89R WCI  30
KINGMAN        CLOUDY    54  41  61 NE10      29.79R
FLAGSTAFF      LGT RAIN  37  35  92 E14       29.86R FOG     WCI  28

$$

REGIONAL REPORTS    NEVADA/IDAHO/WYOMING

CITY           SKY/WX    TMP DP  RH WIND       PRES   REMARKS
LAS VEGAS, NV  CLOUDY    57  49  74 W8        29.75F
ELY            MOCLDY    42  36  79 N16       29.99R
ELKO           PTCLDY    54  32  43 NE15      30.01R
POCATELLO, ID  CLOUDY    51  42  71 E13       30.05R
BURLEY         CLOUDY    50  43  77 W5        30.04S
EVANSTON, WY   CLOUDY    37  28  70 E15G24    30.09R WCI  28
ROCK SPRINGS   CLOUDY    35  28  75 NE22      30.14R WCI  23
KEMMERER         N/A     34  30  86 E17G23    30.13R WCI  23

$$



USA.gov is the U.S. government's official web portal to all federal, state and local government web resources and services.